This is the latest recevied weather packets stored in our database for station/object K4IR. If no packets are shown the sender has not sent any weather packets the latest 10 day(s).
| Time | Temp. | Humidity | Pressure | Rain* | Wind** | Luminosity | Snow |
|---|---|---|---|---|---|---|---|
| 1788143144 | 77° F | 99% | 765.1 mmHg | 0 in | - | 0 W/m² | - |
| 1788142544 | 77° F | 99% | 765.1 mmHg | 0 in | - | 0 W/m² | - |
| 1788141942 | 77° F | 99% | 765.2 mmHg | 0 in | - | 0 W/m² | - |
| 1788141338 | 77° F | 99% | 764.9 mmHg | 0 in | - | 0 W/m² | - |
| 1788140734 | 77° F | 99% | 765.1 mmHg | 0 in | - | 0 W/m² | - |
| 1788140131 | 77° F | 99% | 765.1 mmHg | 0 in | - | 0 W/m² | - |
| 1788139526 | 77° F | 99% | 765.1 mmHg | 0 in | - | 0 W/m² | - |
| 1788138926 | 77° F | 99% | 765 mmHg | 0 in | - | 0 W/m² | - |
| 1788138322 | 77° F | 98% | 764.8 mmHg | 0 in | - | 0 W/m² | - |
| 1788137719 | 77° F | 98% | 764.7 mmHg | 0 in | - | 0 W/m² | - |
| 1788137115 | 78° F | 98% | 764.7 mmHg | 0 in | - | 0 W/m² | - |
| 1788136512 | 78° F | 98% | 764.8 mmHg | 0 in | - | 0 W/m² | - |
| 1788135912 | 78° F | 98% | 764.3 mmHg | 0 in | - | 0 W/m² | - |
| 1788135308 | 78° F | 98% | 764.6 mmHg | 0 in | - | 0 W/m² | - |
| 1788134707 | 79° F | 98% | 764.5 mmHg | 0 in | - | 0 W/m² | - |
| 1788134106 | 79° F | 98% | 764.5 mmHg | 0 in | - | 0 W/m² | - |
| 1788133501 | 79° F | 98% | 764.5 mmHg | 0 in | - | 1 W/m² | - |
| 1788132898 | 79° F | 97% | 764.5 mmHg | 0 in | - | 4 W/m² | - |
| 1788132296 | 80° F | 97% | 764.5 mmHg | 0 in | - | 8 W/m² | - |
| 1788131693 | 80° F | 97% | 764.8 mmHg | 0 in | - | 17 W/m² | - |
| 1788131093 | 80° F | 97% | 764.6 mmHg | 0 in | - | 28 W/m² | - |
| 1788130488 | 80° F | 97% | 764.8 mmHg | 0 in | - | 40 W/m² | - |
| 1788129886 | 80° F | 97% | 764.6 mmHg | 0 in | - | 50 W/m² | - |
| 1788129286 | 80° F | 97% | 764.6 mmHg | 0 in | - | 55 W/m² | - |
| 1788128686 | 79° F | 97% | 764.8 mmHg | 0 in | - | 60 W/m² | - |
* Rain latest hour (hover to see other rain measurements)
** Current wind speed in m/s (hover to see current wind gust speed)